sat.trackr.live / text

‹ back to catalog

COSMOS 2550

NORAD 48865 · 2021-056A

PAYLOAD ACTIVE UNKNOWN

§ Identity

Operator
Country
CIS
Launch date
2021-06-25
Launch site
PLMSC
Launch vehicle
Mass (kg)
RCS (m²)

External: N2YO · Heavens-Above · Gunter

§ Orbital elements

Epoch: 2026-09-21T00:13:51.600864Z

Period
93.88 min
Inclination
67.1431°
Eccentricity
0.0008346
Mean motion
15.33837826 rev/d
Perigee alt
458.7 km
Apogee alt
470.1 km
Semi-major
6,842.5 km
B*
1.1023e-4
RAAN
170.0432°
Arg perigee
268.1401°
Mean anomaly
91.8797°
Rev number
29,341

§ Raw data

COSMOS 25501 48865U 21056A   26264.00962501  .00003437  00000+0  11023-3 0  99942 48865  67.1431 170.0432 0008346 268.1401  91.8797 15.33837826293411

JSON: /api/v1/satellites/48865 · /tle

For live sub-satellite position, see the globe view (requires WebGL).

§ Visibility from observer

Set your observer location to see the next 7 days of passes ≥ 10°. The values pass through the URL so the page stays shareable.

No JS? Fill the form by hand. The geolocation button needs JavaScript.